Berlin, NH

10:46 AM EDT on August 17, 2017 (GMT -0400)
Berlin Municipal

Weather History for KBML - April, 2014

Change the Weather History Date:

Thursday, April 17, 2014

  Actual Average Record
Temperature  
Mean Temperature 28 °F -  
Max Temperature 45 °F 51 °F 82 °F (2002)
Min Temperature 10 °F 24 °F 10 °F (2014)
Degree Days  
Heating Degree Days 38    
Moisture  
Dew Point 13 °F    
Average Humidity 57    
Maximum Humidity 88    
Minimum Humidity 30    
Precipitation  
Precipitation 0.00 in - - ()
Sea Level Pressure  
Sea Level Pressure 30.74 in    
Wind  
Wind Speed 2 mph (SSE)    
Max Wind Speed 13 mph    
Max Gust Speed 17 mph    
Visibility 10 miles    
Events      
Averages and records for this station are not official NWS values.
T = Trace of Precipitation, MM = Missing Value Source: NWS Daily Summary

Daily Weather History Graph

Daily Weather History Graph

Search for Another Location

Airport or City:

Trip Planner

Search our weather history database for the weather conditions in past years. The results will help you decide how hot, cold, wet, or windy it might be!

Date:

Astronomy

Apr. 17, 2014 Rise Set
Actual Time 5:57 AM EDT 7:32 PM EDT
Civil Twilight 5:26 AM EDT 8:02 PM EDT
Nautical Twilight 4:49 AM EDT 8:39 PM EDT
Astronomical Twilight 4:09 AM EDT 9:19 PM EDT
Moon 10:19 PM EDT 7:22 AM EDT
Length of Visible Light 14h 35m
Length of Day
13h 34m
Waning Gibbous, 94% of the Moon is Illuminated
Apr 17
Waning Gibbous
Apr 22
Last Quarter
Apr 29
New
May 6
First Quarter
May 14
Full

Hourly Weather History & Observations

Time (EDT) Temp. Windchill Dew Point Humidity Pressure Visibility Wind Dir Wind Speed Gust Speed Precip Events Conditions
12:52 AM 15.1 °F - 10.9 °F 84% 30.69 in 10.0 mi Calm Calm - N/A   Clear
1:52 AM 14.0 °F - 10.9 °F 88% 30.71 in 10.0 mi Calm Calm - N/A   Clear
2:52 AM 12.0 °F - 8.1 °F 84% 30.71 in 10.0 mi Calm Calm - N/A   Clear
3:52 AM 12.0 °F - 8.1 °F 84% 30.75 in 10.0 mi Calm Calm - N/A   Clear
4:52 AM 10.9 °F - 7.0 °F 84% 30.76 in 10.0 mi Calm Calm - N/A   Clear
5:52 AM 10.0 °F - 7.0 °F 87% 30.78 in 10.0 mi Calm Calm - N/A   Clear
6:52 AM 12.9 °F - 9.0 °F 84% 30.81 in 10.0 mi Calm Calm - N/A   Clear
7:52 AM 19.9 °F - 15.1 °F 81% 30.82 in 10.0 mi Calm Calm - N/A   Clear
8:52 AM 25.0 °F - 17.1 °F 72% 30.83 in 10.0 mi Calm Calm - N/A   Clear
9:52 AM 30.9 °F - 15.1 °F 52% 30.82 in 10.0 mi Calm Calm - N/A   Clear
10:52 AM 36.0 °F 31.1 °F 14.0 °F 41% 30.82 in 10.0 mi SSW 5.8 mph - N/A   Clear
11:52 AM 37.9 °F - 14.0 °F 38% 30.80 in 10.0 mi Calm Calm - N/A   Clear
1:52 PM 42.1 °F 37.7 °F 14.0 °F 32% 30.76 in 10.0 mi SSW 6.9 mph - N/A   Clear
2:52 PM 44.1 °F 39.0 °F 15.1 °F 31% 30.75 in 10.0 mi SSE 9.2 mph - N/A   Clear
3:52 PM 44.1 °F 41.5 °F 14.0 °F 30% 30.72 in 10.0 mi Variable 4.6 mph - N/A   Clear
4:52 PM 45.0 °F 40.6 °F 15.1 °F 30% 30.71 in 10.0 mi SSE 8.1 mph - N/A   Clear
5:52 PM 43.0 °F 37.2 °F 12.9 °F 30% 30.70 in 10.0 mi SSE 10.4 mph - N/A   Clear
6:52 PM 39.9 °F 32.5 °F 14.0 °F 35% 30.70 in 10.0 mi SSE 12.7 mph 17.3 mph N/A   Clear
7:52 PM 36.0 °F 31.1 °F 14.0 °F 41% 30.69 in 10.0 mi SE 5.8 mph - N/A   Clear
8:52 PM 32.0 °F - 16.0 °F 52% 30.69 in 10.0 mi Calm Calm - N/A   Clear
9:52 PM 34.0 °F 25.5 °F 18.0 °F 52% 30.67 in 10.0 mi SE 11.5 mph - N/A   Clear
10:52 PM 32.0 °F 24.8 °F 18.0 °F 56% 30.66 in 10.0 mi SE 8.1 mph - N/A   Clear
11:52 PM 32.0 °F 27.5 °F 17.1 °F 54% 30.64 in 10.0 mi SE 4.6 mph - N/A   Clear